Flag for Slovenia Weather past 2 weeks in Celje, Slovenia

Now
48 °F

Cool.


Feels Like: 47 °F
Forecast: 29 / 62 °F
Wind: 5 mph from Northwest

Location: Celje

Current Time: Mar 28, 2015 at 3:49:07 AM

Latest Report: Mar 28, 2015 at 3:00 AM


Visibility: N/A

Pressure: 30.03 "Hg

Humidity: 45%

Dew point: 28 °F

Location of CeljeLocation

Historic Weather in Celje — Graph

°F

Celje temperature yesterday

Maximum temperature yesterday: 49 °F (at 7:00 PM)
Minimum temperature yesterday: 45 °F (at 10:00 AM)
Average temperature yesterday: 47 °F

Past Weeks' High & Low Weather Summary

 TemperatureHumidityPressure
High63 °F (Mar 24, 4:00 PM)98% (Mar 27, 1:00 AM)30.51 "Hg (Mar 27, 1:00 AM)
Low26 °F (Mar 20, 6:00 AM)31% (Mar 19, 5:00 PM)29.70 "Hg (Mar 25, 7:00 PM)
Average44 °F71%30.14 "Hg
* Reported Mar 13 2:00 AM — Mar 28 2:00 AM, Celje, Weather by CustomWeather, © 2015

Note: Actual official high and low records may vary slightly from our data, if they occured in-between our weather recording intervals... More about our weather records

Advertising

Celje weather history for previous 24 hours

 ConditionsComfort  
Time TempWeatherWind HumidityBarometerVisibility
2:00 AM
Sat, Mar 28
49 °FCool.6 mph44%30.02 "HgN/A
1:00 AM49 °FCool.5 mph44%30.02 "HgN/A
12:00 AM49 °FCool.6 mph46%30.01 "HgN/A
11:00 PM
Fri, Mar 27
49 °FCool.6 mph47%30.01 "HgN/A
10:00 PM49 °FCool.5 mph51%30.00 "HgN/A
9:00 PM48 °FCool.1 mph63%30.00 "HgN/A
8:00 PM48 °FCool.2 mph60%29.98 "HgN/A
7:00 PM49 °FOvercast.6 mph61%29.96 "Hg19 mi
6:00 PM47 °FCool.6 mph67%29.93 "HgN/A
5:00 PM46 °FCool.7 mph73%29.93 "HgN/A
4:00 PM46 °FCool.7 mph73%29.93 "HgN/A
3:00 PM46 °FCool.6 mph75%29.93 "HgN/A
2:00 PM46 °FLight rain. Overcast.6 mph78%29.92 "Hg9 mi
1:00 PM46 °FLight rain. Overcast.7 mph77%29.91 "Hg9 mi
12:00 PM46 °FCool.6 mph78%29.90 "HgN/A
11:00 AM45 °FCool.6 mph81%29.89 "HgN/A
10:00 AM45 °FQuite cool.6 mph84%29.88 "HgN/A
9:00 AM45 °FCool.6 mph84%29.85 "HgN/A
8:00 AM46 °FCool.6 mph87%29.82 "HgN/A
7:00 AM48 °FRain. Low clouds.3 mph98%29.77 "Hg1 mi
6:00 AM48 °FLight rain. Low clouds.2 mph98%29.75 "Hg1 mi
5:00 AM47 °FFog.1 mph98%29.74 "Hg5 mi
3:00 AM47 °FCool.2 mph98%29.74 "HgN/A
Weather by CustomWeather, © 2015

See weather overviewHow to use our weather pages